Flag for U.S.A. Weather past 2 weeks in Akron, Ohio, U.S.A.

Now
39 °F

Overcast.


Feels Like: 35 °F
Forecast: 30 / 51 °F
Wind: 6 mph from Southeast

Location: Akron Fulton International Airport

Current Time: Mar 31, 2015 at 5:27:35 AM

Latest Report: Mar 31, 2015 at 4:54 AM


Visibility: 10 mi

Pressure: 29.84 "Hg

Humidity: 70%

Dew point: 30 °F

Location of AkronLocation

Historic Weather in Akron — Graph

°F

Akron temperature yesterday

Maximum temperature yesterday: 54 °F (at 5:54 PM)
Minimum temperature yesterday: 40 °F (at 12:54 AM)
Average temperature yesterday: 46 °F

Past Weeks' High & Low Weather Summary

 TemperatureHumidityPressure
High65 °F (Mar 16, 1:54 PM)93% (Mar 26, 2:54 AM)30.36 "Hg (Mar 26, 2:54 AM)
Low15 °F (Mar 28, 5:54 AM)23% (Mar 24, 4:54 PM)29.70 "Hg (Mar 17, 3:54 AM)
Average38 °F58%30.10 "Hg
* Reported Mar 16 3:54 AM — Mar 31 3:54 AM, Akron, Weather by CustomWeather, © 2015

Note: Actual official high and low records may vary slightly from our data, if they occured in-between our weather recording intervals... More about our weather records

Advertising

Akron weather history for previous 24 hours

 ConditionsComfort  
Time TempWeatherWind HumidityBarometerVisibility
3:54 AM
Tue, Mar 31
39 °FLight rain. Mostly cloudy.8 mph73%29.87 "Hg10 mi
2:54 AM41 °FLight rain. Overcast.3 mph58%29.92 "Hg10 mi
1:54 AM43 °FOvercast.No wind51%29.95 "Hg10 mi
12:54 AM41 °FMostly cloudy.No wind55%29.97 "Hg10 mi
11:54 PM
Mon, Mar 30
46 °FMostly cloudy.6 mph42%29.98 "Hg10 mi
10:54 PM47 °FClear.9 mph37%29.97 "Hg10 mi
9:54 PM47 °FClear.10 mph39%29.96 "Hg10 mi
8:54 PM47 °FPassing clouds.7 mph39%29.93 "Hg10 mi
7:54 PM49 °FOvercast.8 mph39%29.92 "Hg10 mi
6:54 PM52 °FPartly sunny.16 mph34%29.92 "Hg10 mi
5:54 PM54 °FMore clouds than sun.20 mph34%29.92 "Hg10 mi
4:54 PM53 °FMostly cloudy.15 mph35%29.92 "Hg10 mi
3:54 PM53 °FMore clouds than sun.17 mph32%29.93 "Hg10 mi
2:54 PM52 °FPartly sunny.22 mph35%29.94 "Hg10 mi
1:54 PM50 °FScattered clouds.21 mph38%29.96 "Hg10 mi
12:54 PM49 °FScattered clouds.20 mph41%29.97 "Hg10 mi
11:54 AM45 °FMostly cloudy.18 mph51%29.98 "Hg10 mi
10:54 AM44 °FBroken clouds.18 mph55%29.96 "Hg10 mi
9:54 AM43 °FOvercast.15 mph62%29.94 "Hg10 mi
8:54 AM43 °FPassing clouds.14 mph68%29.92 "Hg10 mi
7:54 AM40 °FPassing clouds.12 mph70%29.90 "Hg10 mi
6:54 AM41 °FOvercast.16 mph67%29.87 "Hg10 mi
5:54 AM42 °FOvercast.13 mph71%29.85 "Hg10 mi
Weather by CustomWeather, © 2015

See weather overviewHow to use our weather pages